GW5327 Weather Reports


time (UTC)temp
C
wind
direction
speed
KPH
gust
KPH
rain 1hr
cm
rain 24hr
cm
rain mn
cm
humidity
%
barometer
mb
20260508141536 14 216 0.0 0.0 0.00 0.00 0.00 53 1017.8
20260508140037 14 198 0.0 0.0 0.00 0.00 0.00 59 1017.8
20260508134534 13 147 0.0 8.0 0.00 0.00 0.00 57 1017.8
20260508133029 12 310 0.0 6.4 0.00 0.00 0.00 62 1018.0
20260508131525 11 29 0.0 0.0 0.00 0.00 0.00 64 1018.1
20260508130022 11 85 0.0 0.0 0.00 0.00 0.00 68 1018.1
20260508124519 10 192 0.0 0.0 0.00 0.00 0.00 74 1018.2
20260508123014 8 210 0.0 0.0 0.00 0.00 0.00 86 1018.1
20260508121510 6 347 0.0 0.0 0.00 0.00 0.00 89 1018.1
20260508120009 5 258 0.0 0.0 0.00 0.00 0.00 91 1018.0
20260508114505 4 259 0.0 0.0 0.00 0.00 0.00 91 1017.9
20260508113004 3 258 0.0 0.0 0.00 0.00 0.00 91 1017.6
20260508111502 3 258 0.0 0.0 0.00 0.00 0.00 92 1017.6
20260508110004 2 258 0.0 0.0 0.00 0.00 0.00 91 1017.5
20260508104606 2 257 0.0 0.0 0.00 0.00 0.00 91 1017.4
20260508103101 2 257 0.0 0.0 0.00 0.00 0.00 91 1017.4
20260508101600 2 257 0.0 0.0 0.00 0.00 0.00 91 1017.3
20260508100058 2 258 0.0 0.0 0.00 0.00 0.00 91 1017.2
20260508094613 2 258 0.0 0.0 0.00 0.00 0.00 91 1017.2
20260508093056 2 258 0.0 0.0 0.00 0.00 0.00 90 1017.1
20260508091553 2 258 0.0 0.0 0.00 0.00 0.00 91 1016.9
20260508090054 2 257 0.0 0.0 0.00 0.00 0.00 90 1016.9
20260508084549 2 258 0.0 0.0 0.00 0.00 0.00 90 1016.8
20260508083048 2 257 0.0 0.0 0.00 0.00 0.00 90 1016.8
20260508081608 2 257 0.0 0.0 0.00 0.00 0.00 90 1016.9
20260508080045 3 258 0.0 0.0 0.00 0.00 0.00 90 1016.8
20260508074544 3 257 0.0 0.0 0.00 0.00 0.00 90 1016.8
20260508073044 2 257 0.0 0.0 0.00 0.00 0.00 89 1016.7
20260508071545 2 257 0.0 0.0 0.00 0.00 0.00 88 1016.7
20260508070039 3 347 0.0 0.0 0.00 0.00 0.00 88 1016.5
20260508064536 3 257 0.0 0.0 0.00 0.00 0.00 88 1016.6
20260508063046 3 260 0.0 0.0 0.00 0.00 0.00 87 1016.7
20260508061533 4 260 0.0 0.0 0.00 0.00 0.00 87 1016.9
20260508060035 3 260 0.0 0.0 0.00 0.00 0.00 86 1016.8
20260508054531 4 260 0.0 0.0 0.00 0.00 0.00 85 1016.7
20260508053026 5 260 0.0 0.0 0.00 0.00 0.00 84 1016.8
20260508051525 5 260 0.0 0.0 0.00 0.00 0.00 84 1016.6
20260508050025 5 260 0.0 0.0 0.00 0.00 0.00 83 1016.8
20260508044526 5 260 0.0 0.0 0.00 0.00 0.00 83 1016.7
20260508043020 5 260 0.0 0.0 0.00 0.00 0.00 81 1016.7
20260508041514 6 260 0.0 0.0 0.00 0.00 0.00 80 1016.6
20260508040012 6 279 0.0 0.0 0.00 0.00 0.00 80 1016.7
20260508034511 6 279 0.0 0.0 0.00 0.00 0.00 80 1016.7
20260508031507 7 280 0.0 0.0 0.00 0.00 0.00 78 1016.5
20260508030006 7 280 0.0 0.0 0.00 0.00 0.00 76 1016.4
20260508023059 8 280 0.0 0.0 0.00 0.00 0.00 73 1016.1
20260508021557 8 280 0.0 0.0 0.00 0.00 0.00 72 1015.9
20260508014556 10 280 0.0 0.0 0.00 0.00 0.00 66 1015.3
20260508013053 10 280 0.0 0.0 0.00 0.00 0.00 63 1015.1
20260508011553 11 279 0.0 0.0 0.00 0.00 0.00 55 1014.9
20260508010054 12 279 0.0 0.0 0.00 0.05 0.00 53 1014.9
20260508004555 12 309 0.0 0.0 0.00 0.05 0.00 48 1014.7
20260508003051 13 256 0.0 0.0 0.00 0.05 0.00 44 1014.5
20260508001550 13 347 0.0 0.0 0.00 0.05 0.00 44 1014.5
20260508000051 15 347 0.0 6.4 0.00 0.10 0.00 42 1014.1
20260507234549 15 266 0.0 4.8 0.00 0.10 0.00 41 1013.9
20260507233049 15 300 0.0 8.0 0.00 0.10 0.00 41 1013.7
20260507231554 16 258 3.2 11.3 0.00 0.10 0.00 42 1013.5
20260507230051 16 268 3.2 8.0 0.00 0.10 0.00 42 1013.7
20260507224550 16 249 1.6 16.1 0.00 0.10 0.00 43 1013.8
20260507223046 17 268 3.2 17.7 0.00 0.10 0.00 42 1013.3
20260507221545 17 8 3.2 12.9 0.00 0.10 0.00 42 1013.4
20260507220045 17 301 4.8 14.5 0.00 0.15 0.00 41 1013.2
20260507214559 16 291 0.0 12.9 0.00 0.15 0.00 47 1013.1
20260507213045 17 322 3.2 16.1 0.00 0.15 0.00 43 1013.0
20260507211543 17 260 1.6 8.0 0.00 0.15 0.00 45 1012.8
20260507210042 17 217 1.6 12.9 0.00 0.18 0.00 43 1012.7
20260507204540 17 322 4.8 12.9 0.00 0.18 0.00 43 1012.6
20260507203047 17 322 3.2 16.1 0.00 0.18 0.00 44 1012.6
20260507201542 17 38 1.6 12.9 0.00 0.18 0.00 45 1012.6
20260507200050 16 217 0.0 17.7 0.00 0.20 0.00 48 1012.7
20260507194535 16 280 4.8 14.5 0.00 0.20 0.00 48 1012.9
20260507193034 17 239 3.2 14.5 0.00 0.20 0.00 45 1012.9
20260507191533 16 278 3.2 12.9 0.00 0.20 0.00 50 1013.3
20260507190030 16 292 0.0 3.2 0.00 0.20 0.00 48 1013.2
20260507184528 17 194 0.0 6.4 0.00 0.20 0.00 52 1013.5
20260507183027 17 215 0.0 0.0 0.00 0.20 0.00 50 1013.5
20260507181530 16 265 0.0 0.0 0.00 0.20 0.00 53 1013.6
20260507180026 16 211 0.0 0.0 0.00 0.23 0.00 53 1013.6
20260507174522 16 300 0.0 0.0 0.00 0.23 0.00 59 1013.9
20260507173030 15 32 0.0 0.0 0.00 0.23 0.00 54 1014.0
20260507171517 15 46 0.0 0.0 0.00 0.23 0.00 60 1014.1
20260507170016 15 315 0.0 0.0 0.00 0.28 0.00 58 1014.3
20260507164515 14 347 0.0 0.0 0.00 0.28 0.00 58 1014.4
20260507163014 15 329 0.0 0.0 0.00 0.28 0.00 59 1014.5
20260507161510 13 40 0.0 0.0 0.00 0.28 0.00 67 1014.6
20260507160010 13 310 0.0 0.0 0.00 0.30 0.00 63 1014.8
20260507154509 13 315 0.0 0.0 0.00 0.30 0.00 67 1014.9
20260507153008 13 71 0.0 0.0 0.00 0.30 0.00 64 1014.7
20260507151508 12 74 0.0 0.0 0.00 0.30 0.00 64 1014.8
20260507150014 12 51 0.0 0.0 0.00 0.30 0.00 65 1014.9
20260507144511 12 18 0.0 0.0 0.00 0.30 0.00 64 1015.1
20260507143001 12 64 0.0 0.0 0.00 0.30 0.00 68 1015.0